This demonstration page uses our WeatherBlox Daily Observations layout. Learn more.

Left ArrowRight Arrow

44.31136, -96.79839

Hourly Observations for June 24, 2019

Temp ( °F °C ) Dew Point ( °F °C ) Humidity (%) Winds ( mph kmh ) Pressure ( in mb ) Visibility ( mi km ) Precip ( " mm )
12:56 am 00:56 Cloudy 58 14.4 56 13.3 93 93 Calm 29.77 1008 10 16 0.00 0.00
1:56 am 01:56 Cloudy 58 14.4 56 13.3 93 93 WNW 5 7 29.76 1008 10 16 0.00 0.00
2:56 am 02:56 Cloudy 58 14.4 56 13.3 93 93 W 6 9 29.76 1008 10 16 0.00 0.00
3:56 am 03:56 Partly Cloudy 59 15 57 13.9 93 93 W 7 11 29.74 1007 10 16 0.00 0.00
4:56 am 04:56 Cloudy 59 15 56 13.3 90 90 W 6 9 29.74 1007 10 16 0.00 0.00
5:56 am 05:56 Sunny 58 14.4 56 13.3 93 93 W 5 7 29.74 1007 10 16 0.00 0.00
6:56 am 06:56 Mostly Sunny 57 13.9 56 13.3 96 96 Calm 29.74 1007 10 16 0.00 0.00
7:48 am 07:48 Mostly Sunny 61 16 55 13 83 83 WNW 3 6 29.67 1005 10 16 0.00 0.00
7:56 am 07:56 Mostly Sunny 60 15.6 56 13.3 86 86 WNW 5 7 29.73 1007 10 16 0.00 0.00
8:56 am 08:56 Mostly Sunny 63 17.2 56 13.3 78 78 VRB 5 7 29.72 1006 10 16 0.00 0.00
9:42 am 09:42 Mostly Cloudy 64 18 55 13 73 73 NNE 6 9 29.65 1004 10 16 0.00 0.00
9:56 am 09:56 Mostly Cloudy 65 18.3 57 13.9 76 76 NE 5 7 29.72 1007 10 16 0.00 0.00
10:56 am 10:56 Sunny 68 20 58 14.4 70 70 Calm 29.73 1007 10 16 0.00 0.00
11:36 am 11:36 Mostly Sunny 70 21 57 14 64 64 WNW 6 9 29.65 1004 10 16 0.00 0.00
11:56 am 11:56 Partly Cloudy 69 20.6 57 13.9 66 66 S 5 7 29.73 1007 10 16 0.00 0.00
12:09 pm 12:09 Mostly Cloudy 70 21 57 14 64 64 S 6 9 29.65 1004 7 11 0.00 0.00
12:19 pm 12:19 Partly Cloudy 72 22 57 14 61 61 ESE 5 7 29.65 1004 10 16 0.00 0.00
12:56 pm 12:56 Hazy 71 21.7 59 15 66 66 WNW 7 11 29.73 1007 6 10 0.00 0.00
1:56 pm 13:56 Sunny 74 23.3 58 14.4 57 57 NW 8 13 29.72 1007 10 16 0.00 0.00
2:56 pm 14:56 Partly Cloudy 75 23.9 57 13.9 54 54 NW 9 15 29.71 1006 10 16 0.00 0.00
3:56 pm 15:56 undefined 75 23.9 54 12.2 48 48 NW 10 17 29.70 1006 10 16 0.00 0.00
4:03 pm 16:03 Mostly Sunny 75 24 55 13 50 50 WNW 12 19 29.61 1003 10 16 0.00 0.00
4:56 pm 16:56 Mostly Sunny 76 24.4 57 13.9 52 52 WSW 13 20 29.70 1006 10 16 0.00 0.00
5:23 pm 17:23 Mostly Sunny 75 24 55 13 50 50 W 14 22 29.61 1003 10 16 0.00 0.00
5:56 pm 17:56 Sunny 77 25 56 13.3 48 48 W 9 15 29.70 1006 10 16 0.00 0.00
7:56 pm 19:56 Cloudy with Rain 65 18.3 56 13.3 73 73 W 14 22 29.75 1007 3 4 0.00 0.03
8:04 pm 20:04 Cloudy with Nearby Thunderstorms 66 19 55 13 68 68 SW 9 15 29.68 1005 10 16 0.01 0.25
8:31 pm 20:31 Mostly Cloudy 66 19 61 16 83 83 SSE 8 13 29.67 1005 10 16 0.03 0.76
8:56 pm 20:56 Partly Cloudy 64 17.8 59 15 84 84 SE 6 9 29.72 1007 10 16 0.04 1.02
9:56 pm 21:56 Mostly Cloudy 63 17.2 59 15 87 87 S 3 6 29.75 1007 10 16 0.00 0.00
10:26 pm 22:26 Cloudy with Nearby Thunderstorms 63 17 61 16 94 94 N 7 11 29.70 1006 10 16 0.00 0.03
10:56 pm 22:56 Cloudy with Light Rain 62 16.7 59 15 90 90 NNE 8 13 29.78 1009 10 16 0.02 0.51
11:44 pm 23:44 Mostly Cloudy with Nearby Thunderstorms 61 16 55 13 83 83 E 7 11 29.71 1006 10 16 0.01 0.25
11:56 pm 23:56 Mostly Clear 60 15.6 56 13.3 86 86 ESE 7 11 29.76 1008 10 16 0.01 0.25

Powered by AerisWeather